Telluride, CO

8:13 AM MDT on April 19, 2018 (GMT -0600)
Telluride Regional

Weather History for KTEX - February, 2013

Change the Weather History Date:

Sunday, February 3, 2013

  Actual Average Record
Temperature  
Mean Temperature 30 °F -  
Max Temperature 37 °F 30 °F 48 °F (1998)
Min Temperature 24 °F 11 °F -14 °F (2011)
Degree Days  
Heating Degree Days 34    
Moisture  
Dew Point 16 °F    
Average Humidity 64    
Maximum Humidity 100    
Minimum Humidity 30    
Precipitation  
Precipitation 0.00 in - - ()
Sea Level Pressure  
Sea Level Pressure 30.20 in    
Wind  
Wind Speed 5 mph (SE)    
Max Wind Speed 13 mph    
Max Gust Speed 17 mph    
Visibility 8 miles    
Events Fog , Snow    
Averages and records for this station are not official NWS values.
T = Trace of Precipitation, MM = Missing Value Source: NWS Daily Summary

Daily Weather History Graph

Daily Weather History Graph

Search for Another Location

Airport or City:

Astronomy

Feb. 03, 2013 Rise Set
Actual Time 7:13 AM MST 5:37 PM MST
Civil Twilight 6:46 AM MST 6:05 PM MST
Nautical Twilight 6:15 AM MST 6:36 PM MST
Astronomical Twilight 5:44 AM MST 7:07 PM MST
Moon 12:44 AM MST (2/3) 11:17 AM MST (2/3)
Length of Visible Light 11h 18m
Length of Day
10h 23m
Waning Gibbous, 48% of the Moon is Illuminated
Feb 3
Waning Gibbous
Feb 10
New
Feb 17
First Quarter
Feb 25
Full
Mar 4
Last Quarter

Hourly Weather History & Observations

Time (MST) Temp. Windchill Dew Point Humidity Pressure Visibility Wind Dir Wind Speed Gust Speed Precip Events Conditions
12:35 AM 26.6 °F 20.0 °F 10.4 °F 51% 30.35 in 10.0 mi SE 5.8 mph - N/A   Clear
12:55 AM 26.6 °F 20.0 °F 10.4 °F 51% 30.34 in 10.0 mi SE 5.8 mph - N/A   Clear
1:15 AM 26.6 °F 19.1 °F 10.4 °F 51% 30.33 in 10.0 mi ESE 6.9 mph - N/A   Clear
1:35 AM 24.8 °F 16.1 °F 10.4 °F 54% 30.33 in 10.0 mi ESE 8.1 mph - N/A   Clear
1:55 AM 26.6 °F 18.2 °F 10.4 °F 51% 30.33 in 10.0 mi ESE 8.1 mph - N/A   Clear
2:15 AM 26.6 °F 20.0 °F 10.4 °F 51% 30.33 in 10.0 mi ESE 5.8 mph - N/A   Clear
2:35 AM 26.6 °F 21.2 °F 8.6 °F 47% 30.33 in 10.0 mi ESE 4.6 mph - N/A   Clear
2:55 AM 26.6 °F 19.1 °F 8.6 °F 47% 30.32 in 10.0 mi SE 6.9 mph - N/A   Clear
3:15 AM 24.8 °F 16.1 °F 10.4 °F 54% 30.31 in 10.0 mi ESE 8.1 mph - N/A   Clear
3:35 AM 26.6 °F 19.1 °F 8.6 °F 47% 30.31 in 10.0 mi ESE 6.9 mph - N/A   Scattered Clouds
3:55 AM 26.6 °F 18.2 °F 10.4 °F 51% 30.29 in 10.0 mi ESE 8.1 mph - N/A   Clear
4:15 AM 24.8 °F 16.9 °F 8.6 °F 50% 30.29 in 10.0 mi ESE 6.9 mph - N/A   Scattered Clouds
4:35 AM 26.6 °F 18.2 °F 8.6 °F 47% 30.28 in 10.0 mi SE 8.1 mph - N/A   Clear
4:55 AM 26.6 °F 19.1 °F 8.6 °F 47% 30.27 in 10.0 mi ESE 6.9 mph - N/A   Scattered Clouds
5:15 AM 26.6 °F 18.2 °F 8.6 °F 47% 30.27 in 10.0 mi ESE 8.1 mph - N/A   Scattered Clouds
5:35 AM 26.6 °F 20.0 °F 6.8 °F 43% 30.27 in 10.0 mi ESE 5.8 mph - N/A   Mostly Cloudy
5:55 AM 26.6 °F 18.2 °F 5.0 °F 40% 30.26 in 10.0 mi ESE 8.1 mph - N/A   Mostly Cloudy
6:15 AM 26.6 °F 17.5 °F 5.0 °F 40% 30.25 in 10.0 mi ESE 9.2 mph - N/A   Overcast
6:35 AM 24.8 °F 16.1 °F 8.6 °F 50% 30.25 in 10.0 mi ESE 8.1 mph - N/A   Overcast
6:55 AM 26.6 °F 20.0 °F 5.0 °F 40% 30.24 in 10.0 mi ESE 5.8 mph - N/A   Mostly Cloudy
7:15 AM 28.4 °F 23.3 °F 6.8 °F 40% 30.24 in 10.0 mi ESE 4.6 mph - N/A   Clear
7:35 AM 26.6 °F 19.1 °F 8.6 °F 47% 30.24 in 10.0 mi SE 6.9 mph - N/A   Scattered Clouds
7:55 AM 28.4 °F 23.3 °F 6.8 °F 40% 30.24 in 10.0 mi ESE 4.6 mph - N/A   Mostly Cloudy
8:15 AM 26.6 °F 19.1 °F 8.6 °F 47% 30.24 in 10.0 mi ESE 6.9 mph - N/A   Overcast
8:35 AM 28.4 °F 22.2 °F 6.8 °F 40% 30.23 in 10.0 mi East 5.8 mph - N/A   Overcast
8:55 AM 30.2 °F 26.7 °F 8.6 °F 40% 30.22 in 10.0 mi ESE 3.5 mph - N/A   Overcast
9:15 AM 30.2 °F - 8.6 °F 40% 30.22 in 10.0 mi Calm Calm - N/A   Overcast
9:35 AM 32.0 °F - 6.8 °F 35% 30.22 in 10.0 mi Calm Calm - N/A   Overcast
9:55 AM 32.0 °F 28.7 °F 10.4 °F 41% 30.22 in 10.0 mi ESE 3.5 mph - N/A   Overcast
10:15 AM 32.0 °F 28.7 °F 5.0 °F 32% 30.21 in 10.0 mi East 3.5 mph - N/A   Overcast
10:35 AM 33.8 °F 27.7 °F 5.0 °F 30% 30.22 in 10.0 mi South 6.9 mph - N/A   Overcast
10:55 AM 33.8 °F - 8.6 °F 35% 30.22 in 10.0 mi Calm Calm - N/A   Overcast
11:15 AM 35.6 °F - 6.8 °F 30% 30.21 in 10.0 mi Calm Calm - N/A   Overcast
11:35 AM 37.4 °F 33.8 °F 8.6 °F 30% 30.20 in 10.0 mi SSE 4.6 mph - N/A   Overcast
11:55 AM 37.4 °F 32.8 °F 12.2 °F 36% 30.20 in 10.0 mi WSW 5.8 mph - N/A   Overcast
12:15 PM 35.6 °F 31.7 °F 14.0 °F 41% 30.19 in 10.0 mi SW 4.6 mph - N/A   Overcast
12:35 PM 37.4 °F 34.9 °F 14.0 °F 38% 30.17 in 10.0 mi SSW 3.5 mph - N/A   Overcast
12:55 PM 35.6 °F 31.7 °F 23.0 °F 60% 30.16 in 10.0 mi WSW 4.6 mph - N/A   Overcast
1:15 PM 35.6 °F 29.2 °F 21.2 °F 56% 30.16 in 10.0 mi SW 8.1 mph - N/A   Overcast
1:55 PM 33.8 °F 28.6 °F 23.0 °F 65% 30.14 in 10.0 mi WSW 5.8 mph - N/A   Overcast
2:15 PM 32.0 °F 23.0 °F 21.2 °F 64% 30.14 in 10.0 mi West 11.5 mph - N/A   Overcast
2:35 PM 32.0 °F 22.5 °F 19.4 °F 60% 30.14 in 10.0 mi West 12.7 mph - N/A   Overcast
2:55 PM 30.2 °F 20.2 °F 19.4 °F 64% 30.13 in 10.0 mi West 12.7 mph 17.3 mph N/A   Overcast
3:15 PM 30.2 °F 20.8 °F 21.2 °F 69% 30.14 in 7.0 mi West 11.5 mph - N/A   Overcast
3:35 PM 28.4 °F 21.2 °F 23.0 °F 80% 30.14 in 4.0 mi WSW 6.9 mph - N/A Snow Light Snow
3:55 PM 28.4 °F 24.6 °F 26.6 °F 93% 30.12 in 1.2 mi West 3.5 mph - N/A Snow Light Snow
4:15 PM 28.4 °F - 26.6 °F 93% 30.12 in 1.5 mi Calm Calm - N/A Snow Light Snow
4:35 PM 28.4 °F - 26.6 °F 93% 30.12 in 1.0 mi Calm Calm - N/A Snow Light Snow
4:55 PM 28.4 °F - 28.4 °F 100% 30.12 in 1.2 mi Calm Calm - N/A Snow Light Snow
5:15 PM 28.4 °F - 28.4 °F 100% 30.11 in 0.8 mi Calm Calm - N/A Snow Light Snow
5:35 PM 28.4 °F - 28.4 °F 100% 30.11 in 1.8 mi Calm Calm - N/A Snow Light Snow
5:55 PM 28.4 °F - 28.4 °F 100% 30.11 in 1.8 mi Calm Calm - N/A Snow Light Snow
6:35 PM 28.4 °F - 28.4 °F 100% 30.12 in 1.8 mi Calm Calm - N/A Snow Light Snow
6:55 PM 28.4 °F - 28.4 °F 100% 30.12 in 4.0 mi Calm Calm - N/A Snow Light Snow
7:15 PM 28.4 °F - 28.4 °F 100% 30.12 in 10.0 mi Calm Calm - N/A   Overcast
7:35 PM 28.4 °F - 28.4 °F 100% 30.11 in 7.0 mi Calm Calm - N/A Snow Light Snow
7:55 PM 28.4 °F - 28.4 °F 100% 30.12 in 7.0 mi Calm Calm - N/A   Overcast
8:15 PM 28.4 °F - 26.6 °F 93% 30.12 in 5.0 mi Calm Calm - N/A Snow Light Snow
8:35 PM 28.4 °F - 26.6 °F 93% 30.11 in 7.0 mi Calm Calm - N/A   Overcast
8:55 PM 26.6 °F - 26.6 °F 100% 30.11 in 10.0 mi Calm Calm - N/A   Overcast
9:15 PM 26.6 °F - 26.6 °F 100% 30.11 in 10.0 mi Calm Calm - N/A   Mostly Cloudy
9:35 PM 26.6 °F - 26.6 °F 100% 30.12 in 10.0 mi Calm Calm - N/A   Overcast
9:55 PM 26.6 °F - 24.8 °F 93% 30.12 in 7.0 mi Calm Calm - N/A   Mostly Cloudy
10:15 PM 24.8 °F 20.5 °F 24.8 °F 100% 30.11 in 0.8 mi South 3.5 mph - N/A   Overcast
10:35 PM 24.8 °F - 24.8 °F 100% 30.12 in 0.5 mi Calm Calm - N/A Fog Light Freezing Fog
10:55 PM 24.8 °F - 24.8 °F 100% 30.12 in 0.2 mi Calm Calm - N/A Fog Light Freezing Fog
11:15 PM 26.6 °F - 26.6 °F 100% 30.12 in 0.2 mi Calm Calm - N/A Fog Light Freezing Fog
11:35 PM 24.8 °F - 24.8 °F 100% 30.12 in 7.0 mi Calm Calm - N/A   Overcast
11:55 PM - - - N/A% 30.12 in 10.0 mi Calm Calm - N/A   Overcast